| time (UTC) | temp F | wind direction | speed MPH | gust MPH | rain 1hr in | rain 24hr in | rain mn in | humidity % | barometer mb |
| 20260505053116 | 58 | 275 | 0.0 | 0.0 | 0.00 | 0.00 | 0.00 | 67 | 1014.2 |
| 20260505051559 | 58 | 277 | 0.0 | 2.0 | 0.00 | 0.00 | 0.00 | 67 | 1014.2 |
| 20260505050107 | 58 | 277 | 0.0 | 2.0 | 0.00 | 0.00 | 0.00 | 68 | 1014.1 |
| 20260505041550 | 58 | 294 | 0.0 | 1.0 | 0.00 | 0.00 | 0.00 | 71 | 1014.0 |
| 20260505040046 | 58 | 300 | 0.0 | 0.0 | 0.00 | 0.00 | 0.00 | 71 | 1014.1 |
| 20260505034606 | 58 | 297 | 0.0 | 0.0 | 0.00 | 0.00 | 0.00 | 71 | 1014.3 |
| 20260505033052 | 58 | 271 | 0.0 | 0.0 | 0.00 | 0.00 | 0.00 | 71 | 1014.4 |
| 20260505031546 | 59 | 252 | 0.0 | 2.0 | 0.00 | 0.00 | 0.00 | 70 | 1014.5 |
| 20260505030044 | 59 | 221 | 0.0 | 2.0 | 0.00 | 0.00 | 0.00 | 70 | 1014.5 |
| 20260505024543 | 58 | 285 | 0.0 | 2.0 | 0.00 | 0.00 | 0.00 | 71 | 1014.6 |
| 20260505023047 | 58 | 315 | 0.0 | 2.0 | 0.00 | 0.00 | 0.00 | 72 | 1014.6 |
| 20260505021543 | 58 | 288 | 0.0 | 4.0 | 0.00 | 0.00 | 0.00 | 72 | 1014.5 |
| 20260505020043 | 59 | 302 | 0.0 | 2.0 | 0.00 | 0.00 | 0.00 | 71 | 1014.6 |
| 20260505014542 | 59 | 294 | 0.0 | 2.0 | 0.00 | 0.00 | 0.00 | 71 | 1014.4 |
| 20260505013041 | 60 | 257 | 0.0 | 2.0 | 0.00 | 0.00 | 0.00 | 70 | 1014.3 |
| 20260505011600 | 62 | 201 | 0.0 | 2.0 | 0.00 | 0.00 | 0.00 | 68 | 1013.9 |
| 20260505010040 | 62 | 319 | 0.0 | 2.0 | 0.00 | 0.00 | 0.00 | 65 | 1013.8 |
| 20260505004540 | 62 | 261 | 0.0 | 0.0 | 0.00 | 0.00 | 0.00 | 65 | 1013.6 |
| 20260505003039 | 63 | 239 | 0.0 | 2.0 | 0.00 | 0.00 | 0.00 | 64 | 1013.4 |
| 20260505001539 | 65 | 276 | 0.0 | 0.0 | 0.00 | 0.00 | 0.00 | 64 | 1013.4 |
| 20260505000048 | 66 | 276 | 0.0 | 0.0 | 0.00 | 0.00 | 0.00 | 61 | 1013.4 |
| 20260504234538 | 68 | 276 | 0.0 | 0.0 | 0.00 | 0.00 | 0.00 | 59 | 1013.2 |
| 20260504233045 | 71 | 276 | 0.0 | 3.0 | 0.00 | 0.00 | 0.00 | 58 | 1013.1 |
| 20260504231537 | 72 | 218 | 0.0 | 3.0 | 0.00 | 0.00 | 0.00 | 55 | 1013.1 |
| 20260504230035 | 73 | 215 | 0.0 | 0.0 | 0.00 | 0.00 | 0.00 | 53 | 1013.2 |
| 20260504224541 | 73 | 215 | 1.0 | 3.0 | 0.00 | 0.00 | 0.00 | 51 | 1013.2 |
| 20260504223032 | 73 | 156 | 2.0 | 5.0 | 0.00 | 0.00 | 0.00 | 50 | 1013.3 |
| 20260504221531 | 74 | 220 | 2.0 | 9.0 | 0.00 | 0.00 | 0.00 | 49 | 1013.5 |
| 20260504220033 | 74 | 156 | 1.0 | 4.0 | 0.00 | 0.00 | 0.00 | 50 | 1013.6 |
| 20260504214530 | 74 | 253 | 0.0 | 2.0 | 0.00 | 0.00 | 0.00 | 49 | 1013.6 |
| 20260504213033 | 73 | 355 | 1.0 | 3.0 | 0.00 | 0.00 | 0.00 | 51 | 1013.9 |
| 20260504211529 | 73 | 201 | 3.0 | 9.0 | 0.00 | 0.00 | 0.00 | 48 | 1013.7 |
| 20260504210027 | 73 | 192 | 2.0 | 7.0 | 0.00 | 0.00 | 0.00 | 50 | 1013.9 |
| 20260504204527 | 74 | 146 | 2.0 | 7.0 | 0.00 | 0.00 | 0.00 | 48 | 1013.6 |
| 20260504203025 | 73 | 157 | 3.0 | 10.0 | 0.00 | 0.00 | 0.00 | 49 | 1013.4 |
| 20260504201523 | 72 | 254 | 4.0 | 12.0 | 0.00 | 0.00 | 0.00 | 52 | 1013.6 |
| 20260504200021 | 72 | 161 | 2.0 | 8.0 | 0.00 | 0.00 | 0.00 | 50 | 1013.9 |
| 20260504194527 | 72 | 196 | 4.0 | 12.0 | 0.00 | 0.00 | 0.00 | 48 | 1014.2 |
| 20260504193018 | 73 | 245 | 3.0 | 11.0 | 0.00 | 0.00 | 0.00 | 50 | 1014.3 |
| 20260504191518 | 73 | 203 | 2.0 | 7.0 | 0.00 | 0.00 | 0.00 | 48 | 1014.5 |
| 20260504190018 | 71 | 182 | 4.0 | 9.0 | 0.00 | 0.00 | 0.00 | 50 | 1014.7 |
| 20260504184515 | 72 | 244 | 4.0 | 11.0 | 0.00 | 0.00 | 0.00 | 50 | 1014.6 |
| 20260504183011 | 70 | 195 | 1.0 | 7.0 | 0.00 | 0.00 | 0.00 | 52 | 1015.1 |
| 20260504181509 | 70 | 252 | 3.0 | 10.0 | 0.00 | 0.00 | 0.00 | 49 | 1015.4 |
| 20260504180007 | 72 | 194 | 2.0 | 8.0 | 0.00 | 0.00 | 0.00 | 47 | 1015.5 |
| 20260504174510 | 73 | 40 | 4.0 | 10.0 | 0.00 | 0.00 | 0.00 | 47 | 1015.6 |
| 20260504173006 | 73 | 200 | 3.0 | 9.0 | 0.00 | 0.00 | 0.00 | 50 | 1015.6 |
| 20260504171601 | 71 | 252 | 5.0 | 11.0 | 0.00 | 0.00 | 0.00 | 49 | 1015.7 |
| 20260504081514 | 45 | 317 | 0.0 | 0.0 | 0.00 | 0.00 | 0.00 | 75 | 1018.3 |